AUA156 LSGG-LOWW

Flight info

Callsign AUA156
Flight time 1h 16m
Altitude 34000
Route SOSAL N871 KORED DCT BERSU DCT DITON N871 DEGES DCT GAMSA/N0456F350 DCT TULSI DCT INPUL DCT NEMAL NEMAL2W
Aircraft A320/M-SDE3FGHIRWY/LB1

Departure

Time 2026-04-23 19:20
Airport Geneva International Airport (LSGG)

Arrival

Time 2026-04-23 20:36
Airport Vienna International Airport (LOWW)
Time Latitude Longitude Altitude Speed Heading
2026-04-23 18:44 46.23130 6.10701 1404 ft 0 kts 135°
2026-04-23 19:08 46.23148 6.10680 1405 ft 4 kts 158°
2026-04-23 19:09 46.23173 6.10675 1402 ft 4 kts 204°
2026-04-23 19:09 46.23192 6.10697 1401 ft 4 kts 225°
2026-04-23 19:09 46.23197 6.10704 1401 ft 0 kts 225°
2026-04-23 19:12 46.23196 6.10702 1403 ft 2 kts 225°
2026-04-23 19:12 46.23166 6.10659 1395 ft 4 kts 225°
2026-04-23 19:12 46.23130 6.10606 1400 ft 11 kts 225°
2026-04-23 19:12 46.23082 6.10534 1399 ft 9 kts 226°
2026-04-23 19:13 46.23041 6.10475 1395 ft 8 kts 225°
2026-04-23 19:13 46.23007 6.10427 1395 ft 6 kts 225°
2026-04-23 19:13 46.22980 6.10387 1398 ft 6 kts 226°
2026-04-23 19:13 46.22953 6.10328 1394 ft 6 kts 262°
2026-04-23 19:14 46.22969 6.10281 1401 ft 4 kts 310°
2026-04-23 19:14 46.23001 6.10235 1396 ft 10 kts 315°
2026-04-23 19:14 46.22994 6.10153 1393 ft 9 kts 229°
2026-04-23 19:14 46.22955 6.10097 1393 ft 7 kts 223°
2026-04-23 19:15 46.22924 6.10053 1399 ft 6 kts 224°
2026-04-23 19:15 46.22901 6.10016 1396 ft 5 kts 238°
2026-04-23 19:15 46.22899 6.09945 1393 ft 6 kts 270°
2026-04-23 19:15 46.22895 6.09906 1394 ft 4 kts 255°
2026-04-23 19:16 46.22848 6.09825 1397 ft 16 kts 224°
2026-04-23 19:16 46.22777 6.09719 1400 ft 14 kts 224°
2026-04-23 19:16 46.22716 6.09629 1399 ft 12 kts 225°
2026-04-23 19:17 46.22616 6.09481 1395 ft 10 kts 226°
2026-04-23 19:17 46.22576 6.09417 1396 ft 7 kts 236°
2026-04-23 19:17 46.22556 6.09347 1405 ft 8 kts 255°
2026-04-23 19:17 46.22551 6.09282 1413 ft 6 kts 270°
2026-04-23 19:18 46.22560 6.09199 1412 ft 9 kts 294°
2026-04-23 19:18 46.22589 6.09161 1415 ft 6 kts 338°
2026-04-23 19:18 46.22640 6.09185 1422 ft 8 kts 41°
2026-04-23 19:18 46.22689 6.09256 1417 ft 17 kts 46°
2026-04-23 19:19 46.23428 6.10337 1396 ft 136 kts 45°
2026-04-23 19:19 46.24196 6.11464 1496 ft 170 kts 44°
2026-04-23 19:20 46.25975 6.14098 2619 ft 186 kts 45°
2026-04-23 19:20 46.26906 6.15480 3016 ft 203 kts 45°
2026-04-23 19:20 46.27953 6.17025 3308 ft 227 kts 46°
2026-04-23 19:20 46.29115 6.18737 3739 ft 248 kts 45°
2026-04-23 19:21 46.30342 6.20539 4460 ft 255 kts 46°
2026-04-23 19:21 46.32445 6.23629 5750 ft 264 kts 46°
2026-04-23 19:21 46.34185 6.26188 6777 ft 270 kts 46°
2026-04-23 19:22 46.35063 6.27478 7261 ft 273 kts 46°
2026-04-23 19:22 46.36325 6.29548 8022 ft 276 kts 57°
2026-04-23 19:22 46.37752 6.34694 9628 ft 279 kts 74°
2026-04-23 19:23 46.38295 6.37407 10380 ft 282 kts 74°
2026-04-23 19:23 46.38861 6.40237 10664 ft 304 kts 74°
2026-04-23 19:23 46.39472 6.43282 10822 ft 327 kts 73°
2026-04-23 19:24 46.40807 6.49956 11482 ft 355 kts 73°
2026-04-23 19:24 46.41502 6.53417 12112 ft 359 kts 73°
2026-04-23 19:24 46.42904 6.60433 13416 ft 365 kts 73°
2026-04-23 19:25 46.44525 6.67455 14641 ft 370 kts 63°
2026-04-23 19:25 46.47516 6.73559 15766 ft 375 kts 51°
2026-04-23 19:26 46.50831 6.79474 16884 ft 381 kts 51°
2026-04-23 19:26 46.52505 6.82478 17418 ft 384 kts 51°
2026-04-23 19:27 46.55864 6.88525 18539 ft 390 kts 51°
2026-04-23 19:27 46.61020 6.97812 19957 ft 397 kts 51°
2026-04-23 19:28 46.64508 7.04108 20863 ft 402 kts 52°
2026-04-23 19:28 46.68048 7.10490 21719 ft 407 kts 52°
2026-04-23 19:29 46.69836 7.13713 22125 ft 410 kts 52°
2026-04-23 19:29 46.73436 7.20235 22904 ft 415 kts 52°
2026-04-23 19:30 46.77061 7.26835 23672 ft 419 kts 52°
2026-04-23 19:30 46.78885 7.30155 24008 ft 421 kts 52°
2026-04-23 19:30 46.82559 7.36851 24661 ft 423 kts 52°
2026-04-23 19:31 46.84402 7.40209 24994 ft 424 kts 52°
2026-04-23 19:31 46.86248 7.43573 25308 ft 425 kts 52°
2026-04-23 19:31 46.88098 7.46955 25613 ft 426 kts 52°
2026-04-23 19:31 46.89949 7.50351 25923 ft 428 kts 52°
2026-04-23 19:32 46.91776 7.53719 26204 ft 429 kts 53°
2026-04-23 19:32 46.93630 7.57147 26467 ft 430 kts 53°
2026-04-23 19:32 46.95491 7.60583 26751 ft 431 kts 53°
2026-04-23 19:32 46.97355 7.64026 27025 ft 432 kts 53°
2026-04-23 19:33 46.99222 7.67483 27270 ft 433 kts 53°
2026-04-23 19:33 47.01091 7.70946 27519 ft 434 kts 53°
2026-04-23 19:33 47.04848 7.77913 27982 ft 437 kts 53°
2026-04-23 19:34 47.06733 7.81410 28204 ft 438 kts 53°
2026-04-23 19:34 47.08620 7.84917 28449 ft 437 kts 53°
2026-04-23 19:34 47.12376 7.91917 29067 ft 435 kts 54°
2026-04-23 19:35 47.14149 7.95485 29366 ft 432 kts 59°
2026-04-23 19:35 47.15746 7.99221 29669 ft 431 kts 59°
2026-04-23 19:35 47.17333 8.02939 29976 ft 429 kts 60°
2026-04-23 19:35 47.18916 8.06660 30285 ft 428 kts 60°
2026-04-23 19:36 47.20489 8.10369 30555 ft 427 kts 60°
2026-04-23 19:36 47.22058 8.14071 30785 ft 427 kts 60°
2026-04-23 19:36 47.23628 8.17770 31041 ft 426 kts 60°
2026-04-23 19:36 47.25199 8.21465 31294 ft 425 kts 60°
2026-04-23 19:37 47.26765 8.25152 31544 ft 424 kts 60°
2026-04-23 19:37 47.28324 8.28830 31800 ft 423 kts 60°
2026-04-23 19:37 47.29702 8.32641 32094 ft 419 kts 69°
2026-04-23 19:37 47.30633 8.36679 32409 ft 415 kts 77°
2026-04-23 19:38 47.31205 8.40839 32666 ft 414 kts 79°
2026-04-23 19:38 47.31744 8.44998 32921 ft 413 kts 79°
2026-04-23 19:38 47.32283 8.49150 33188 ft 412 kts 79°
2026-04-23 19:38 47.32819 8.53286 33437 ft 411 kts 79°
2026-04-23 19:39 47.33345 8.57361 33683 ft 410 kts 79°
2026-04-23 19:39 47.33876 8.61484 33926 ft 409 kts 79°
2026-04-23 19:39 47.34408 8.65603 34160 ft 408 kts 80°
2026-04-23 19:39 47.34936 8.69722 34262 ft 410 kts 80°
2026-04-23 19:40 47.35463 8.73852 34275 ft 411 kts 80°
2026-04-23 19:40 47.36509 8.82125 34275 ft 409 kts 79°
2026-04-23 19:41 47.37546 8.90379 34279 ft 409 kts 79°
2026-04-23 19:41 47.38586 8.98639 34280 ft 409 kts 79°
2026-04-23 19:42 47.39617 9.06902 34282 ft 409 kts 80°
2026-04-23 19:42 47.40629 9.15117 34285 ft 409 kts 80°
2026-04-23 19:43 47.41236 9.23452 34283 ft 409 kts 90°
2026-04-23 19:43 47.41151 9.31846 34284 ft 409 kts 89°
2026-04-23 19:44 47.41080 9.40236 34284 ft 409 kts 89°
2026-04-23 19:44 47.41010 9.48622 34272 ft 408 kts 90°
2026-04-23 19:45 47.40931 9.56999 34275 ft 408 kts 90°
2026-04-23 19:45 47.40970 9.65371 34284 ft 407 kts 83°
2026-04-23 19:46 47.42082 9.73562 34280 ft 407 kts 78°
2026-04-23 19:46 47.43281 9.81736 34279 ft 407 kts 78°
2026-04-23 19:47 47.44265 9.88534 34278 ft 407 kts 78°
2026-04-23 19:47 47.45649 9.98100 34276 ft 407 kts 78°
2026-04-23 19:48 47.46823 10.06279 34278 ft 407 kts 78°
2026-04-23 19:48 47.47982 10.14419 34275 ft 407 kts 78°
2026-04-23 19:49 47.49144 10.22613 34273 ft 407 kts 78°
2026-04-23 19:49 47.50304 10.30820 34266 ft 407 kts 78°
2026-04-23 19:50 47.51457 10.39001 34270 ft 407 kts 78°
2026-04-23 19:50 47.52612 10.47231 34266 ft 407 kts 78°
2026-04-23 19:51 47.53755 10.55442 34267 ft 407 kts 78°
2026-04-23 19:51 47.54894 10.63669 34264 ft 409 kts 78°
2026-04-23 19:52 47.56030 10.71908 34272 ft 409 kts 78°
2026-04-23 19:52 47.57158 10.80170 34270 ft 409 kts 78°
2026-04-23 19:53 47.58275 10.88419 34268 ft 409 kts 78°
2026-04-23 19:53 47.59391 10.96676 34285 ft 409 kts 78°
2026-04-23 19:54 47.60498 11.04878 34285 ft 409 kts 78°
2026-04-23 19:54 47.61598 11.13124 34282 ft 408 kts 78°
2026-04-23 19:55 47.62694 11.21372 34272 ft 408 kts 78°
2026-04-23 19:55 47.63784 11.29618 34270 ft 408 kts 78°
2026-04-23 19:56 47.64868 11.37873 34263 ft 408 kts 78°
2026-04-23 19:56 47.65950 11.46124 34266 ft 407 kts 78°
2026-04-23 19:57 47.67021 11.54382 34259 ft 408 kts 78°
2026-04-23 19:57 47.68092 11.62663 34256 ft 408 kts 78°
2026-04-23 19:58 47.69151 11.70936 34257 ft 408 kts 78°
2026-04-23 19:58 47.70202 11.79209 34262 ft 408 kts 78°
2026-04-23 19:59 47.71377 11.87471 34280 ft 408 kts 76°
2026-04-23 19:59 47.72648 11.95686 34278 ft 408 kts 76°
2026-04-23 20:00 47.73896 12.03902 34271 ft 407 kts 76°
2026-04-23 20:00 47.75096 12.12075 34269 ft 407 kts 76°
2026-04-23 20:01 47.76295 12.20310 34272 ft 408 kts 76°
2026-04-23 20:01 47.77495 12.28543 34266 ft 408 kts 76°
2026-04-23 20:02 47.78698 12.36790 34248 ft 408 kts 76°
2026-04-23 20:02 47.79896 12.45049 34246 ft 409 kts 76°
2026-04-23 20:03 47.81080 12.53327 34244 ft 409 kts 76°
2026-04-23 20:03 47.82256 12.61608 34248 ft 409 kts 76°
2026-04-23 20:04 47.83427 12.69907 34253 ft 410 kts 77°
2026-04-23 20:04 47.84539 12.78235 34276 ft 411 kts 78°
2026-04-23 20:05 47.85289 12.85217 34267 ft 411 kts 79°
2026-04-23 20:05 47.86246 12.95061 34265 ft 410 kts 79°
2026-04-23 20:06 47.87083 13.03410 34265 ft 410 kts 79°
2026-04-23 20:06 47.87952 13.11815 34265 ft 410 kts 79°
2026-04-23 20:07 47.88822 13.20215 34259 ft 410 kts 79°
2026-04-23 20:07 47.89683 13.28614 34260 ft 410 kts 78°
2026-04-23 20:08 47.90527 13.37025 34239 ft 410 kts 78°
2026-04-23 20:08 47.91364 13.45452 34250 ft 411 kts 78°
2026-04-23 20:09 47.91794 13.53904 34240 ft 414 kts 86°
2026-04-23 20:09 47.91756 13.62488 34238 ft 414 kts 86°
2026-04-23 20:10 47.91720 13.69622 34240 ft 414 kts 86°
2026-04-23 20:10 47.91663 13.79655 34103 ft 414 kts 86°
2026-04-23 20:10 47.91638 13.83972 33035 ft 418 kts 86°
2026-04-23 20:11 47.91612 13.88295 32559 ft 417 kts 86°
2026-04-23 20:11 47.91585 13.92629 32120 ft 419 kts 86°
2026-04-23 20:11 47.91555 13.96975 31672 ft 420 kts 86°
2026-04-23 20:11 47.91523 14.01335 31215 ft 421 kts 86°
2026-04-23 20:12 47.91499 14.04229 30915 ft 422 kts 86°
2026-04-23 20:12 47.91461 14.08617 30462 ft 424 kts 87°
2026-04-23 20:12 47.91420 14.13014 29969 ft 425 kts 87°
2026-04-23 20:12 47.91376 14.17427 29497 ft 427 kts 86°
2026-04-23 20:13 47.91334 14.21856 29046 ft 428 kts 86°
2026-04-23 20:13 47.91295 14.26304 28590 ft 430 kts 86°
2026-04-23 20:13 47.91242 14.32212 27967 ft 432 kts 87°
2026-04-23 20:13 47.91211 14.35239 27658 ft 433 kts 87°
2026-04-23 20:14 47.91159 14.39735 27181 ft 434 kts 87°
2026-04-23 20:14 47.91106 14.44186 26727 ft 436 kts 87°
2026-04-23 20:14 47.91051 14.48705 26251 ft 438 kts 87°
2026-04-23 20:14 47.90993 14.53256 25779 ft 440 kts 87°
2026-04-23 20:15 47.90935 14.57815 25308 ft 442 kts 87°
2026-04-23 20:15 47.90878 14.62402 24831 ft 442 kts 87°
2026-04-23 20:15 47.90820 14.66963 24359 ft 440 kts 87°
2026-04-23 20:15 47.90757 14.71511 23884 ft 438 kts 87°
2026-04-23 20:16 47.90694 14.76028 23362 ft 436 kts 87°
2026-04-23 20:16 47.90629 14.80539 22905 ft 435 kts 87°
2026-04-23 20:16 47.90562 14.85029 22431 ft 433 kts 88°
2026-04-23 20:16 47.90492 14.89504 21964 ft 431 kts 88°
2026-04-23 20:17 47.90421 14.93963 21503 ft 429 kts 88°
2026-04-23 20:17 47.90348 14.98395 21057 ft 427 kts 88°
2026-04-23 20:17 47.90273 15.02807 20585 ft 425 kts 87°
2026-04-23 20:17 47.90199 15.07196 20128 ft 422 kts 88°
2026-04-23 20:18 47.90124 15.11558 19673 ft 421 kts 88°
2026-04-23 20:18 47.90047 15.15908 19220 ft 418 kts 88°
2026-04-23 20:18 47.89970 15.20230 18776 ft 416 kts 89°
2026-04-23 20:18 47.89892 15.24486 18311 ft 416 kts 87°
2026-04-23 20:19 47.89809 15.28739 17666 ft 412 kts 88°
2026-04-23 20:19 47.89723 15.33011 17409 ft 413 kts 88°
2026-04-23 20:19 47.89641 15.37284 16952 ft 411 kts 89°
2026-04-23 20:19 47.89560 15.41536 16470 ft 408 kts 86°
2026-04-23 20:20 47.89480 15.45753 15981 ft 408 kts 89°
2026-04-23 20:20 47.89130 15.49955 15502 ft 411 kts 96°
2026-04-23 20:20 47.88448 15.54084 15009 ft 409 kts 99°
2026-04-23 20:20 47.87759 15.58194 14524 ft 408 kts 100°
2026-04-23 20:21 47.87074 15.62286 14044 ft 406 kts 99°
2026-04-23 20:21 47.86393 15.66358 13531 ft 404 kts 100°
2026-04-23 20:21 47.85715 15.70407 13059 ft 402 kts 100°
2026-04-23 20:21 47.85036 15.74450 12571 ft 402 kts 97°
2026-04-23 20:22 47.84357 15.78480 12110 ft 401 kts 98°
2026-04-23 20:22 47.83676 15.82502 11645 ft 399 kts 100°
2026-04-23 20:22 47.83003 15.86456 11336 ft 387 kts 100°
2026-04-23 20:22 47.82352 15.90257 11195 ft 371 kts 100°
2026-04-23 20:23 47.81726 15.93885 11068 ft 354 kts 99°
2026-04-23 20:23 47.81125 15.97368 10949 ft 341 kts 99°
2026-04-23 20:23 47.80550 16.00717 10821 ft 328 kts 99°
2026-04-23 20:23 47.80001 16.03926 10702 ft 314 kts 99°
2026-04-23 20:24 47.79478 16.06985 10551 ft 304 kts 98°
2026-04-23 20:24 47.78962 16.10003 10322 ft 298 kts 98°
2026-04-23 20:24 47.78454 16.12990 10120 ft 297 kts 98°
2026-04-23 20:24 47.77945 16.15959 10013 ft 296 kts 98°
2026-04-23 20:25 47.77442 16.18937 9710 ft 296 kts 95°
2026-04-23 20:25 47.77291 16.21924 9427 ft 286 kts 79°
2026-04-23 20:25 47.77679 16.24772 9129 ft 278 kts 63°
2026-04-23 20:25 47.78535 16.27288 8847 ft 270 kts 49°
2026-04-23 20:26 47.79629 16.29548 8571 ft 269 kts 47°
2026-04-23 20:26 47.80716 16.31806 8296 ft 268 kts 47°
2026-04-23 20:26 47.81796 16.34061 8021 ft 267 kts 47°
2026-04-23 20:26 47.82871 16.36314 7747 ft 267 kts 47°
2026-04-23 20:27 47.83946 16.38566 7474 ft 266 kts 47°
2026-04-23 20:27 47.85017 16.40812 7199 ft 266 kts 46°
2026-04-23 20:27 47.86088 16.43052 6932 ft 265 kts 46°
2026-04-23 20:27 47.87157 16.45288 6647 ft 265 kts 46°
2026-04-23 20:28 47.88224 16.47521 6368 ft 263 kts 46°
2026-04-23 20:28 47.89277 16.49738 6091 ft 259 kts 47°
2026-04-23 20:28 47.90277 16.51862 5852 ft 242 kts 47°
2026-04-23 20:28 47.91213 16.53854 5597 ft 229 kts 46°
2026-04-23 20:29 47.92124 16.55775 5366 ft 225 kts 45°
2026-04-23 20:29 47.93033 16.57678 5137 ft 224 kts 45°
2026-04-23 20:29 47.93934 16.59570 4903 ft 223 kts 45°
2026-04-23 20:29 47.94833 16.61455 4666 ft 223 kts 45°
2026-04-23 20:30 47.95731 16.63341 4438 ft 222 kts 45°
2026-04-23 20:30 47.97471 16.67029 4134 ft 208 kts 45°
2026-04-23 20:30 47.98276 16.68756 4048 ft 198 kts 45°
2026-04-23 20:31 47.99056 16.70416 3965 ft 194 kts 44°
2026-04-23 20:31 47.99831 16.72055 3873 ft 192 kts 44°
2026-04-23 20:31 48.00603 16.73681 3797 ft 192 kts 44°
2026-04-23 20:31 48.01371 16.75270 3702 ft 190 kts 39°
2026-04-23 20:32 48.02385 16.76356 3619 ft 174 kts 12°
2026-04-23 20:32 48.03538 16.76545 3572 ft 160 kts 349°
2026-04-23 20:32 48.04545 16.75978 3358 ft 154 kts 328°
2026-04-23 20:32 48.05260 16.74796 3122 ft 156 kts 304°
2026-04-23 20:33 48.05718 16.73389 3016 ft 144 kts 304°
2026-04-23 20:33 48.06156 16.72059 2977 ft 139 kts 305°
2026-04-23 20:33 48.06574 16.70790 2691 ft 136 kts 304°
2026-04-23 20:33 48.06989 16.69528 2431 ft 135 kts 305°
2026-04-23 20:34 48.07403 16.68266 2216 ft 135 kts 304°
2026-04-23 20:34 48.07814 16.67012 2022 ft 134 kts 304°
2026-04-23 20:34 48.08223 16.65763 1835 ft 133 kts 305°
2026-04-23 20:34 48.08636 16.64505 1643 ft 137 kts 305°
2026-04-23 20:35 48.09048 16.63243 1463 ft 135 kts 305°
2026-04-23 20:35 48.09461 16.61980 1287 ft 135 kts 301°
2026-04-23 20:35 48.09873 16.60722 1119 ft 134 kts 299°
2026-04-23 20:35 48.10283 16.59460 922 ft 136 kts 298°
2026-04-23 20:36 48.10691 16.58189 719 ft 134 kts 298°
2026-04-23 20:36 48.11103 16.56952 627 ft 127 kts 298°
2026-04-23 20:36 48.11430 16.55967 622 ft 81 kts 294°
2026-04-23 20:36 48.11588 16.55470 609 ft 31 kts 302°
2026-04-23 20:37 48.11688 16.55306 619 ft 20 kts 313°
2026-04-23 20:37 48.11765 16.55195 614 ft 11 kts 317°
2026-04-23 20:37 48.11833 16.55132 609 ft 12 kts 354°
2026-04-23 20:37 48.11890 16.55212 618 ft 12 kts 96°
2026-04-23 20:38 48.11847 16.55314 613 ft 11 kts 124°
2026-04-23 20:38 48.11816 16.55410 616 ft 10 kts 115°
2026-04-23 20:38 48.11789 16.55494 609 ft 8 kts 116°
2026-04-23 20:38 48.11766 16.55566 616 ft 7 kts 116°
2026-04-23 20:39 48.11745 16.55625 618 ft 6 kts 117°
2026-04-23 20:39 48.11729 16.55674 619 ft 6 kts 114°
2026-04-23 20:39 48.11703 16.55759 615 ft 13 kts 115°
2026-04-23 20:39 48.11656 16.55916 616 ft 16 kts 98°
2026-04-23 20:40 48.11695 16.56046 611 ft 10 kts 92°
2026-04-23 20:40 48.11682 16.56102 618 ft 5 kts 115°
2026-04-23 20:40 48.11661 16.56170 613 ft 10 kts 115°
2026-04-23 20:40 48.11674 16.56251 621 ft 8 kts 37°
2026-04-23 20:41 48.11720 16.56289 609 ft 7 kts 27°
2026-04-23 20:41 48.11760 16.56332 616 ft 7 kts 60°
2026-04-23 20:41 48.11751 16.56392 613 ft 5 kts 117°
2026-04-23 20:41 48.11736 16.56435 617 ft 4 kts 116°
2026-04-23 20:42 48.11726 16.56467 622 ft 3 kts 116°
2026-04-23 20:42 48.11707 16.56479 615 ft 4 kts 185°
2026-04-23 20:42 48.11685 16.56466 609 ft 3 kts 204°
2026-04-23 20:42 48.11672 16.56456 609 ft 2 kts 205°
2026-04-23 20:43 48.11661 16.56448 609 ft 3 kts 206°
2026-04-23 20:43 48.11653 16.56442 609 ft 0 kts 205°
2026-04-23 20:43 48.11652 16.56442 609 ft 0 kts 205°